This is the latest recevied weather packets stored in our database for station/object DL1NER. If no packets are shown the sender has not sent any weather packets the latest 10 day(s).
| Time | Temp. | Humidity | Pressure | Rain* | Wind** | Luminosity | Snow |
|---|---|---|---|---|---|---|---|
| 1777392012 | 20.56° C | 31% | 1017.6 hPa | 0 mm | - | 0 W/m² | - |
| 1777391412 | 20.56° C | 29% | 1017.7 hPa | 0 mm | - | 0 W/m² | - |
| 1777390812 | 21.11° C | 28% | 1017.8 hPa | 0 mm | - | 0 W/m² | - |
| 1777390212 | 21.67° C | 27% | 1017.8 hPa | 0 mm | - | 0 W/m² | - |
| 1777389612 | 21.67° C | 28% | 1017.8 hPa | 0 mm | - | 0 W/m² | - |
| 1777389012 | 21.67° C | 28% | 1018.1 hPa | 0 mm | - | 0 W/m² | - |
| 1777388412 | 21.67° C | 26% | 1018.1 hPa | 0 mm | - | 0 W/m² | - |
| 1777387812 | 21.11° C | 26% | 1018 hPa | 0 mm | - | 0 W/m² | - |
| 1777387212 | 21.67° C | 26% | 1018 hPa | 0 mm | - | 0 W/m² | - |
| 1777386612 | 21.67° C | 25% | 1018.1 hPa | 0 mm | - | 0 W/m² | - |
| 1777386012 | 21.67° C | 27% | 1018.2 hPa | 0 mm | - | 0 W/m² | - |
| 1777385412 | 21.67° C | 28% | 1018.2 hPa | 0 mm | - | 0 W/m² | - |
| 1777384812 | 21.67° C | 28% | 1018.2 hPa | 0 mm | - | 0 W/m² | - |
| 1777384212 | 21.67° C | 27% | 1018.3 hPa | 0 mm | - | 0 W/m² | - |
| 1777383611 | 21.67° C | 29% | 1018.4 hPa | 0 mm | - | 0 W/m² | - |
| 1777383012 | 21.11° C | 29% | 1018.4 hPa | 0 mm | - | 0 W/m² | - |
| 1777382412 | 21.67° C | 29% | 1018.4 hPa | 0 mm | - | 0 W/m² | - |
| 1777381812 | 21.67° C | 30% | 1018.4 hPa | 0 mm | - | 0 W/m² | - |
| 1777381212 | 21.11° C | 31% | 1018.5 hPa | 0 mm | - | 0 W/m² | - |
| 1777380611 | 21.11° C | 29% | 1018.6 hPa | 0 mm | - | 0 W/m² | - |
| 1777380012 | 21.11° C | 32% | 1018.8 hPa | 0 mm | - | 0 W/m² | - |
| 1777379411 | 21.11° C | 30% | 1018.9 hPa | 0 mm | - | 0 W/m² | - |
| 1777378811 | 20.56° C | 31% | 1018.9 hPa | 0 mm | - | 0 W/m² | - |
| 1777378212 | 21.11° C | 31% | 1019 hPa | 0 mm | - | 0 W/m² | - |
| 1777377611 | 20.56° C | 35% | 1018.9 hPa | 0 mm | - | 0 W/m² | - |
* Rain latest hour (hover to see other rain measurements)
** Current wind speed in m/s (hover to see current wind gust speed)